When you browse on this site, cookies collect data to enhance your experience and personalize the content and advertising you see.
Visit our Privacy Policy to learn more. By continuing to use the site, you agree to this use of cookies and data.
  • In Spain
  • List of Countries
  • For 7 days
  • Water Temperature
  • Satellite Maps
  • Weather Map
  • Weather Widgets
  • user-avatar
    Login

    Hourly Weather Atzitzintla

    Today, 19 December, Wednesday

    Time Temperature Precipitation Wind Pressure Humidity
    00:00 +8°C° 0 mm 1 mps 550 mmHg 78%
    01:00 +7°C° 0 mm 2 mps 550 mmHg 80%
    02:00 +6°C° 0 mm 2 mps 550 mmHg 82%
    03:00 +6°C° 0 mm 2 mps 550 mmHg 84%
    04:00 +6°C° 0 mm 2 mps 550 mmHg 85%
    05:00 +6°C° 0 mm 2 mps 550 mmHg 85%
    06:00 +6°C° 0 mm 2 mps 550 mmHg 86%
    07:00 +7°C° 0 mm 2 mps 551 mmHg 80%
    08:00 +9°C° 0 mm 2 mps 552 mmHg 74%
    09:00 +10°C° 0 mm 2 mps 553 mmHg 68%
    10:00 +13°C° 0 mm 2 mps 553 mmHg 62%
    11:00 +13°C° 0 mm 3 mps 553 mmHg 56%
    12:00 +14°C° 0 mm 4 mps 554 mmHg 49%
    13:00 +14°C° 0 mm 4 mps 553 mmHg 48%
    14:00 +14°C° 0 mm 4 mps 553 mmHg 48%
    15:00 +14°C° 0 mm 5 mps 552 mmHg 47%
    16:00 +13°C° 0 mm 4 mps 551 mmHg 53%
    17:00 +11°C° 0 mm 4 mps 550 mmHg 59%
    18:00 +9°C° 0 mm 3 mps 550 mmHg 65%
    19:00 +9°C° 0 mm 3 mps 550 mmHg 66%
    20:00 +8°C° 0 mm 2 mps 550 mmHg 67%
    21:00 +7°C° 0 mm 2 mps 550 mmHg 68%
    22:00 +7°C° 0 mm 2 mps 550 mmHg 70%
    23:00 +8°C° 0 mm 1 mps 550 mmHg 72%

    Tomorrow, 20 December, Thursday

    Time Temperature Precipitation Wind Pressure Humidity
    00:00 +7°C° 0 mm 1 mps 550 mmHg 73%
    01:00 +7°C° 0 mm 1 mps 550 mmHg 76%
    02:00 +6°C° 0 mm 1 mps 550 mmHg 78%
    03:00 +6°C° 0 mm 1 mps 550 mmHg 80%
    04:00 +6°C° 0 mm 1 mps 550 mmHg 81%
    05:00 +5°C° 0 mm 1 mps 550 mmHg 81%
    06:00 +5°C° 0 mm 1 mps 550 mmHg 81%
    07:00 +7°C° 0 mm 1 mps 551 mmHg 73%
    08:00 +9°C° 0 mm 1 mps 553 mmHg 65%
    09:00 +10°C° 0 mm 1 mps 554 mmHg 56%
    10:00 +10°C° 0 mm 2 mps 555 mmHg 53%
    11:00 +13°C° 0 mm 2 mps 555 mmHg 49%
    12:00 +13°C° 0 mm 3 mps 556 mmHg 45%
    13:00 +12°C° 0.1 mm 3 mps 555 mmHg 48%
    14:00 +12°C° 0.1 mm 3 mps 555 mmHg 51%
    15:00 +12°C° 0.1 mm 3 mps 554 mmHg 54%
    16:00 +11°C° 0.1 mm 3 mps 554 mmHg 60%
    17:00 +9°C° 0.1 mm 3 mps 553 mmHg 67%
    18:00 +8°C° 0.1 mm 3 mps 553 mmHg 73%
    19:00 +7°C° 0.1 mm 2 mps 553 mmHg 77%
    20:00 +6°C° 0.1 mm 2 mps 553 mmHg 81%
    21:00 +5°C° 0.1 mm 2 mps 553 mmHg 85%
    22:00 +5°C° 0 mm 2 mps 553 mmHg 86%
    23:00 +5°C° 0 mm 2 mps 553 mmHg 86%

    Day after tomorrow, 21 December, Friday

    Time Temperature Precipitation Wind Pressure Humidity
    00:00 +5°C° 0 mm 2 mps 553 mmHg 86%
    01:00 +4°C° 0 mm 2 mps 553 mmHg 86%
    02:00 +4°C° 0 mm 2 mps 552 mmHg 86%
    03:00 +4°C° 0 mm 2 mps 552 mmHg 86%
    04:00 +3°C° 0 mm 2 mps 552 mmHg 86%
    05:00 +3°C° 0 mm 2 mps 552 mmHg 86%
    06:00 +2°C° 0 mm 2 mps 552 mmHg 86%
    07:00 +3°C° 0 mm 2 mps 553 mmHg 80%
    08:00 +4°C° 0 mm 2 mps 553 mmHg 74%
    09:00 +5°C° 0 mm 2 mps 554 mmHg 68%
    10:00 +7°C° 0 mm 2 mps 555 mmHg 59%
    11:00 +9°C° 0 mm 2 mps 556 mmHg 51%
    12:00 +10°C° 0 mm 2 mps 556 mmHg 42%
    13:00 +12°C° 0 mm 2 mps 556 mmHg 42%
    14:00 +12°C° 0 mm 2 mps 555 mmHg 42%
    15:00 +12°C° 0 mm 2 mps 555 mmHg 42%
    16:00 +10°C° 0 mm 2 mps 554 mmHg 52%
    17:00 +8°C° 0 mm 2 mps 553 mmHg 61%
    18:00 +6°C° 0 mm 2 mps 552 mmHg 71%
    19:00 +6°C° 0 mm 2 mps 552 mmHg 75%
    20:00 +5°C° 0 mm 2 mps 552 mmHg 79%
    21:00 +5°C° 0 mm 1 mps 552 mmHg 83%
    22:00 +5°C° 0 mm 1 mps 552 mmHg 81%
    23:00 +4°C° 0 mm 1 mps 552 mmHg 79%

    22 December, Saturday

    Time Temperature Precipitation Wind Pressure Humidity
    00:00 +4°C° 0 mm 1 mps 551 mmHg 77%
    01:00 +4°C° 0 mm 1 mps 551 mmHg 73%
    02:00 +4°C° 0 mm 1 mps 550 mmHg 69%
    03:00 +3°C° 0 mm 1 mps 550 mmHg 66%
    04:00 +3°C° 0 mm 1 mps 550 mmHg 62%
    05:00 +3°C° 0 mm 1 mps 550 mmHg 59%
    06:00 +3°C° 0 mm 1 mps 550 mmHg 56%
    07:00 +5°C° 0 mm 1 mps 552 mmHg 49%
    08:00 +8°C° 0 mm 1 mps 553 mmHg 43%
    09:00 +9°C° 0 mm 0 mps 555 mmHg 37%
    10:00 +12°C° 0 mm 1 mps 556 mmHg 35%
    11:00 +13°C° 0 mm 1 mps 556 mmHg 33%
    12:00 +15°C° 0 mm 1 mps 557 mmHg 31%
    13:00 +15°C° 0 mm 1 mps 556 mmHg 33%
    14:00 +15°C° 0 mm 2 mps 556 mmHg 35%
    15:00 +15°C° 0 mm 2 mps 555 mmHg 36%
    16:00 +13°C° 0 mm 2 mps 554 mmHg 46%
    17:00 +10°C° 0 mm 2 mps 553 mmHg 55%
    18:00 +9°C° 0 mm 1 mps 552 mmHg 65%
    19:00 +9°C° 0 mm 1 mps 553 mmHg 69%
    20:00 +8°C° 0 mm 1 mps 553 mmHg 73%
    21:00 +7°C° 0 mm 1 mps 553 mmHg 78%
    22:00 +7°C° 0 mm 1 mps 552 mmHg 78%
    23:00 +6°C° 0 mm 1 mps 552 mmHg 78%

    23 December, Sunday

    Time Temperature Precipitation Wind Pressure Humidity
    00:00 +6°C° 0 mm 1 mps 552 mmHg 79%
    01:00 +5°C° 0 mm 1 mps 552 mmHg 77%
    02:00 +5°C° 0 mm 1 mps 551 mmHg 75%
    03:00 +5°C° 0 mm 1 mps 551 mmHg 73%
    04:00 +4°C° 0 mm 1 mps 551 mmHg 71%
    05:00 +4°C° 0 mm 1 mps 550 mmHg 68%
    06:00 +4°C° 0 mm 1 mps 550 mmHg 65%
    07:00 +6°C° 0 mm 1 mps 552 mmHg 57%
    08:00 +8°C° 0 mm 1 mps 554 mmHg 49%
    09:00 +10°C° 0 mm 0 mps 555 mmHg 41%
    10:00 +12°C° 0 mm 1 mps 556 mmHg 36%
    11:00 +14°C° 0 mm 1 mps 556 mmHg 30%
    12:00 +15°C° 0 mm 2 mps 557 mmHg 25%
    13:00 +15°C° 0 mm 2 mps 556 mmHg 27%
    14:00 +15°C° 0 mm 2 mps 556 mmHg 28%
    15:00 +16°C° 0 mm 2 mps 555 mmHg 30%
    16:00 +13°C° 0 mm 2 mps 554 mmHg 40%
    17:00 +10°C° 0 mm 2 mps 553 mmHg 50%
    18:00 +8°C° 0 mm 2 mps 552 mmHg 61%
    19:00 +8°C° 0 mm 1 mps 552 mmHg 65%
    20:00 +7°C° 0 mm 1 mps 553 mmHg 70%
    21:00 +7°C° 0 mm 1 mps 553 mmHg 75%
    22:00 +6°C° 0 mm 1 mps 553 mmHg 77%
    23:00 +6°C° 0 mm 1 mps 553 mmHg 79%

    24 December, Monday

    Time Temperature Precipitation Wind Pressure Humidity
    00:00 +5°C° 0 mm 1 mps 552 mmHg 81%
    01:00 +4°C° 0 mm 2 mps 552 mmHg 82%
    02:00 +4°C° 0 mm 2 mps 552 mmHg 83%
    03:00 +4°C° 0 mm 2 mps 552 mmHg 84%
    04:00 +3°C° 0 mm 2 mps 552 mmHg 84%
    05:00 +3°C° 0 mm 2 mps 552 mmHg 84%
    06:00 +3°C° 0 mm 2 mps 552 mmHg 84%
    07:00 +4°C° 0 mm 2 mps 553 mmHg 73%
    08:00 +6°C° 0 mm 2 mps 554 mmHg 63%
    09:00 +7°C° 0 mm 2 mps 555 mmHg 52%
    10:00 +9°C° 0 mm 2 mps 555 mmHg 47%
    11:00 +10°C° 0 mm 3 mps 556 mmHg 43%
    12:00 +12°C° 0 mm 3 mps 556 mmHg 38%
    13:00 +12°C° 0 mm 3 mps 556 mmHg 40%
    14:00 +12°C° 0 mm 3 mps 555 mmHg 43%
    15:00 +12°C° 0 mm 3 mps 555 mmHg 45%
    16:00 +11°C° 0 mm 3 mps 554 mmHg 55%
    17:00 +9°C° 0 mm 3 mps 553 mmHg 65%
    18:00 +8°C° 0 mm 3 mps 552 mmHg 76%
    19:00 +7°C° 0 mm 2 mps 552 mmHg 79%
    20:00 +6°C° 0 mm 2 mps 552 mmHg 82%
    21:00 +6°C° 0 mm 2 mps 553 mmHg 85%
    22:00 +6°C° 0 mm 2 mps 552 mmHg 85%
    23:00 +6°C° 0 mm 1 mps 552 mmHg 85%
    Show more